Showing default

FALCONSAT-6, 43815

Orbit data source: Space-Track

FALCONSAT-6, 43815 is a payload satellite owned by USAF SMC (US) in SSO that was launched on Mon, 03 Dec 2018 UTC via an FALCON 9 launch vehicle from the Air Force Western Test Range (AFWTR). Payload-class satellites include a variety of spacecraft equipped with specific instruments for various scientific and technological missions. These include communications satellites like Starlink; space stations such as the ISS; scientific satellites like the Hubble; Earth observation satellites from companies like Planet Labs, Umbra, and HawkEye 360; GPS; miniature CubeSats for education and research; and military/defense satellites.

Loading next visibility...
Identifier
43815, 2018-099BK
Orbit
SSO
Country
Flag of USUS
Related business
Manufacturer
USAF Academy
Mission
Operational Defense Technology
Bus & Motor
FALCONSAT, Unknown motor
Mass
181 kg wet, 181 kg dry
Launch date (UTC)
2018-12-03 (7 years ago)
Launch vehicle
FALCON 9
Launch site
Air Force Western Test Range (AFWTR)
Object type
Payload
Rocket body
Debris
Shape & HBR
Box + 1 Ant, 2.0 m
Radar Cross Section
0.551 m², Medium (>0.1 m² and < 1m²)

Expand to show TLE details & history
Last TLE update: 19 hours ago

TLE from 19 hours ago
0 FALCONSAT-6
1 43815U 18099BK  25309.49324120  .00005081  00000-0  20676-3 0  9990
2 43815  97.4063  22.9175 0017400  17.9560 353.1676 15.24826036379612
Epoch: 2025-11-05T11:50Z
TLE epoch observation values (Epoch: 2025-11-05T11:50:16.039Z)
Latitude
10.95433°
Longitude
158.95182°
Altitude
481.773 km
Speed
7.632 km/s
True Right ascension
01h 25m 56s
True Declination
10° 53' 16"
Sunlit
Object was in full shadow at epoch
Visualization orbit readout
Latitude
Unknown
Longitude
Unknown
Altitude
Unknown
Speed
Unknown
Apparent Right ascension
Unknown
Apparent Declination
Unknown
Sunlit
N/A
Visualization observer readout
Local Sidereal Time
02:44:13
Azimuth
Unknown
Elevation
Unknown
Doppler factor
Unknown
Orbital elements
Apogee altitude
500.215 km
Perigee altitude
476.32 km
Semi-major axis
6,866.404 km
Eccentricity
0.00174
Inclination
97.4063°
RAAN
22.9175°
Arg. of periapsis
17.956°
True anomaly
353.14383°
Mean anomaly
353.1676°
Eccentric anomaly
353.15572°
Mean motion
3.8146 °/min
Orbital period
94.37 mins
BSTAR
0.00020676
Loading maneuver chart data...
Computing Atmospheric mass density...
Loading historical data...
Loading historical data...
Loading historical data...
Loading historical data...
Loading historical data...
Loading historical data...
Loading historical data...

Documentation

Showing up to 5 results
|